Regional Weather Roundup
Issued by NWS

Home | Current Version | Previous Version | Graphics & Text | Print | Product List | Glossary On
Versions: 1 2 3 4 5 6 7 8 9 10 11 12 13 14 15 16 17 18 19 20 21 22 23 24 25 26 27 28 29 30 31 32 33 34 35 36 37 38 39 40 41 42 43 44 45 46 47 48 49 50
000
ASUS43 KLOT 060403
RWRIL

ILLINOIS REGIONAL WEATHER ROUNDUP
NATIONAL WEATHER SERVICE CHICAGO/ROMEOVILLE IL
1100 PM CDT THU MAY 05 2016

NOTE: "FAIR" INDICATES FEW OR NO CLOUDS BELOW 12,000 FEET WITH NO
SIGNIFICANT WEATHER AND/OR OBSTRUCTIONS TO VISIBILITY.

* THESE STATIONS ARE NOT UNDER NWS QUALITY CONTROL. THEY ALSO MAY NOT
  REPORT WEATHER SUCH AS PRECIPITATION OR FOG.

ILZ001-002-007-009-015-016-024-060500-
NORTHWEST ILLINOIS

CITY           SKY/WX    TMP DP  RH WIND       PRES   REMARKS
MOLINE         CLEAR     47  41  80 CALM      29.99S
STERLING*      CLEAR     50  43  76 CALM      30.00S
$$

ILZ003-004-008-010-011-017-018-060500-
NORTH CENTRAL ILLINOIS

CITY           SKY/WX    TMP DP  RH WIND       PRES   REMARKS
ROCKFORD       CLEAR     49  41  74 CALM      30.00S
FREEPORT*      CLEAR     48  39  70 SW6       30.00S
DE KALB*       CLEAR     54  38  55 W3        29.99S
$$

ILZ005-006-012>014-019>023-060500-
NORTHEAST ILLINOIS

CITY           SKY/WX    TMP DP  RH WIND       PRES   REMARKS
CHICAGO-OHARE  CLEAR     48  38  68 CALM      29.99R
CHICAGO-MIDWAY CLEAR     51  38  60 CALM      29.99S
AURORA         CLEAR     50  41  71 SE3       29.99S
LANSING*       CLEAR     44  40  88 CALM      29.99F
WAUKEGAN       CLEAR     40  37  89 CALM      29.98F
DUPAGE AIRPORT CLEAR     50  39  66 CALM      29.98S
WHEELING       CLEAR     45  38  76 CALM      30.00S
NORTHERLY ISL    N/A     45  39  79 CALM        N/A
NORTHERLY ISL    N/A     45  39  79 CALM        N/A
$$

LMZ740>746-060500-
SOUTHERN LAKE MICHIGAN

STATION/POSITION SKY/WX   TEMP    WIND        PRES    VSBY  WAVE
                          AIR SEA DIR/SP/G                  HT/PER
                          (F)     (DEG/KT/KT) (MB)    (MI)  (FT/S)
SOUTHERN BUOY              41 40  260/  6/  6 1015.4          2/ 5
WILMETTE HARBOR            45 44   CALM  /  2   N/A           2/ 5
HARRISON CRIB              48        CALM       N/A
BURNHAM HARBOR             45      CALM  /  2   N/A
CALUMET HARBOR             46                 1015.1R
BURNS HARBOR               47     330/  2/  3 1016.3
MICHIGAN CITY              46     270/  3/  3   N/A
ST. JOSEPH                 45 47                N/A           3/ 5
$$

ILZ025>027-034>036-040-047-049-050-058-095>099-060500-
WEST-CENTRAL ILLINOIS

CITY           SKY/WX    TMP DP  RH WIND       PRES   REMARKS
QUINCY         CLEAR     52  42  69 SW5       30.03R
MACOMB*        CLEAR     49  41  72 W5        30.04S
$$

ILZ028>032-037-038-041>044-048-051>054-059>061-060500-
CENTRAL ILLINOIS

CITY           SKY/WX    TMP DP  RH WIND       PRES   REMARKS
BLOOMINGTON    CLEAR     52  43  71 NW6       30.01F
DECATUR        CLEAR     55  41  59 NW5       30.00S
PEORIA         CLEAR     49  42  77 CALM      30.01S
SPRINGFIELD    CLEAR     52  44  74 CALM      30.01S
TAYLORVILLE    NOT AVBL
$$

ILZ033-039-045-046-055>057-062-063-060500-
EAST-CENTRAL ILLINOIS

CITY           SKY/WX    TMP DP  RH WIND       PRES   REMARKS
CHAMPAIGN      CLEAR     49  42  77 W5        30.00R
MATTOON        PTCLDY    52  42  69 NW5       29.99S
$$

ILZ079-100>102-060500-
SOUTHWEST ILLINOIS

CITY           SKY/WX    TMP DP  RH WIND       PRES   REMARKS
BELLEVILLE     CLEAR     51  51  99 CALM      30.01S
CAHOKIA*       CLEAR     54  45  71 CALM      30.02S
SPARTA*        CLEAR     53  45  74 CALM      30.03S
$$

ILZ064>066-069>071-074>076-080>082-084>086-088>090-092>094-060500-
SOUTH-CENTRAL ILLINOIS

CITY           SKY/WX    TMP DP  RH WIND       PRES   REMARKS
CARBONDALE     CLEAR     49  45  86 CALM      30.02R
MT. VERNON     CLEAR     46  41  81 CALM      30.01S
SALEM*         CLEAR     52  47  83 CALM      30.01S
$$

ILZ067-068-072-073-078-083-087-091-060500-
SOUTHEAST ILLINOIS

CITY           SKY/WX    TMP DP  RH WIND       PRES   REMARKS
LAWRENCEVILLE  CLEAR     51  43  74 N5        29.99R
FLORA*         PTCLDY    55  47  74 NW6       30.00S
HARRISBURG*    CLEAR     53  47  80 NW7       30.01R
ROBINSON*      PTCLDY    48  43  84 NW5       30.00S
$$

ABBREVIATIONS USED IN REMARKS
   TC - TEMPERATURE IN CELSIUS
  WCI - WIND CHILL INDEX
   HX - HEAT INDEX
  VSB - VISIBILITY
$$





USA.gov is the U.S. government's official web portal to all federal, state and local government web resources and services.